TimeEST,TemperatureF,Dew PointF,Humidity,Sea Level PressureIn,VisibilityMPH,Wind Direction,Wind SpeedMPH,Gust SpeedMPH,PrecipitationIn,Events,Conditions,WindDirDegrees,DateUTC
12:54 AM,28.0,25.0,88,30.29,10.0,Calm,Calm,-,N/A,,Clear,0,2009-12-07 05:54:00
1:54 AM,27.0,24.1,89,30.29,10.0,SSE,3.5,-,N/A,,Clear,150,2009-12-07 06:54:00
2:54 AM,26.1,24.1,92,30.28,10.0,Calm,Calm,-,N/A,,Clear,0,2009-12-07 07:54:00
3:54 AM,25.0,23.0,92,30.28,8.0,Calm,Calm,-,N/A,,Clear,0,2009-12-07 08:54:00
4:54 AM,25.0,24.1,96,30.28,7.0,SE,3.5,-,N/A,,Clear,130,2009-12-07 09:54:00
5:54 AM,25.0,23.0,92,30.28,8.0,SSE,4.6,-,N/A,,Clear,150,2009-12-07 10:54:00
6:54 AM,25.0,23.0,92,30.29,8.0,Calm,Calm,-,N/A,,Clear,0,2009-12-07 11:54:00
7:13 AM,24.8,23.0,93,30.25,9.0,East,3.5,-,N/A,,Mostly Cloudy,100,2009-12-07 12:13:00
7:37 AM,26.6,24.8,93,30.25,8.0,Variable,3.5,-,N/A,,Scattered Clouds,0,2009-12-07 12:37:00
7:54 AM,26.1,23.0,88,30.31,8.0,Calm,Calm,-,N/A,,Clear,0,2009-12-07 12:54:00
8:54 AM,28.9,25.0,85,30.31,8.0,NNW,3.5,-,N/A,,Clear,340,2009-12-07 13:54:00
9:54 AM,34.0,28.0,79,30.31,10.0,Calm,Calm,-,N/A,,Clear,0,2009-12-07 14:54:00
10:54 AM,37.9,30.9,76,30.30,10.0,Calm,Calm,-,N/A,,Clear,0,2009-12-07 15:54:00
11:54 AM,45.0,32.0,60,30.25,10.0,NW,3.5,-,N/A,,Clear,320,2009-12-07 16:54:00
12:54 PM,48.0,35.1,61,30.22,10.0,South,5.8,-,N/A,,Clear,170,2009-12-07 17:54:00
1:54 PM,48.9,35.1,59,30.19,10.0,Calm,Calm,-,N/A,,Clear,0,2009-12-07 18:54:00
2:54 PM,51.1,32.0,48,30.19,10.0,Calm,Calm,-,N/A,,Mostly Cloudy,0,2009-12-07 19:54:00
3:54 PM,50.0,32.0,50,30.21,10.0,Calm,Calm,-,N/A,,Mostly Cloudy,0,2009-12-07 20:54:00
4:54 PM,48.0,35.1,61,30.23,10.0,SSW,3.5,-,N/A,,Scattered Clouds,200,2009-12-07 21:54:00
5:54 PM,46.0,34.0,63,30.25,10.0,Calm,Calm,-,N/A,,Partly Cloudy,0,2009-12-07 22:54:00
6:54 PM,43.0,28.9,58,30.26,10.0,NNW,8.1,-,N/A,,Scattered Clouds,340,2009-12-07 23:54:00
7:54 PM,41.0,30.0,65,30.25,10.0,NNW,8.1,-,N/A,,Clear,330,2009-12-08 00:54:00
8:54 PM,39.0,30.0,70,30.26,10.0,NNW,11.5,-,N/A,,Clear,340,2009-12-08 01:54:00
9:54 PM,41.0,30.0,65,30.25,10.0,North,4.6,-,N/A,,Overcast,350,2009-12-08 02:54:00
10:54 PM,41.0,28.9,62,30.25,10.0,North,5.8,-,N/A,,Mostly Cloudy,360,2009-12-08 03:54:00
11:54 PM,41.0,30.0,65,30.22,10.0,North,8.1,-,N/A,,Overcast,350,2009-12-08 04:54:00